IBUKIYAMA Weather Reports


time (UTC)temp
C
wind
direction
speed
KPH
gust
KPH
rain 1hr
cm
rain 24hr
cm
rain mn
cm
humidity
%
barometer
mb
20260504141037 1 282 14.5 38.6 0.00 0.51 0.08 98 871.9
20260504081021 3 301 33.8 49.9 0.00 1.09 0.08 99 866.8
20260504045018 6 314 12.9 32.2 0.00 5.21 0.05 99 865.7
20260504044024 6 310 16.1 35.4 0.00 5.21 0.05 99 865.7
20260504043045 6 359 9.7 22.5 0.00 5.21 0.05 99 865.3
20260504042016 6 309 8.0 22.5 0.00 5.21 0.05 99 865.4
20260504041048 6 311 8.0 24.1 0.00 5.21 0.05 99 865.6
20260504040024 6 322 6.4 16.1 0.00 5.21 0.05 99 865.6
20260504035025 7 305 6.4 14.5 0.00 6.10 0.05 99 865.3
20260504034027 7 318 6.4 12.9 0.00 6.10 0.05 99 865.6
20260504033050 7 359 8.0 20.9 0.00 6.10 0.05 99 865.3
20260504032051 7 359 11.3 22.5 0.00 6.10 0.05 99 865.4
20260504031030 7 293 12.9 19.3 0.00 6.10 0.05 99 865.3
20260504030050 7 319 6.4 19.3 0.00 6.10 0.05 99 865.3
20260504025031 8 359 11.3 22.5 0.00 6.60 0.05 99 865.3
20260504024034 7 359 12.9 25.7 0.00 6.60 0.05 99 865.2
20260504023026 8 277 16.1 38.6 0.00 6.60 0.05 99 865.2
20260504022033 8 277 12.9 29.0 0.00 6.60 0.05 99 865.1
20260504021037 8 295 16.1 27.4 0.00 6.60 0.05 99 865.3
20260504020024 8 293 14.5 25.7 0.00 6.60 0.05 99 865.4
20260504015049 8 359 17.7 32.2 0.00 6.60 0.05 99 865.4
20260504014052 8 274 17.7 30.6 0.00 6.60 0.05 99 865.1
20260504013037 8 297 12.9 29.0 0.00 6.60 0.05 99 865.4
20260504012042 8 311 9.7 24.1 0.00 6.60 0.05 99 865.4
20260504011017 8 359 14.5 35.4 0.00 6.60 0.05 99 865.4
20260504010017 8 359 14.5 25.7 0.00 6.60 0.05 99 865.4
20260504005041 8 325 11.3 20.9 0.00 6.60 0.05 99 865.2
20260504004039 8 295 9.7 19.3 0.00 6.60 0.05 99 865.4
20260504003023 8 303 8.0 14.5 0.00 6.60 0.05 99 865.4
20260504002028 8 301 8.0 16.1 0.00 6.60 0.05 99 865.5
20260504001032 8 306 9.7 17.7 0.00 6.60 0.05 99 865.5
20260504000030 8 359 6.4 14.5 0.00 6.60 0.05 99 865.5
20260503235019 8 291 8.0 14.5 0.00 6.60 0.05 99 865.4
20260503234025 8 318 9.7 17.7 0.00 6.60 0.05 99 865.5
20260503233046 8 307 6.4 14.5 0.00 6.60 0.05 99 865.4
20260503232031 8 293 6.4 17.7 0.00 6.60 0.05 99 865.5
20260503231027 9 359 8.0 17.7 0.00 6.60 0.05 99 865.2
20260503230033 9 283 8.0 17.7 0.00 6.60 0.05 99 865.2
20260503225016 9 289 8.0 19.3 0.00 6.60 0.05 99 865.2
20260503224037 9 359 11.3 20.9 0.00 6.60 0.05 99 865.1
20260503223017 9 359 11.3 24.1 0.00 6.60 0.05 99 864.9
20260503222019 9 359 12.9 22.5 0.00 6.60 0.05 99 864.8
20260503221024 9 291 11.3 20.9 0.00 6.60 0.05 99 864.6
20260503220020 9 300 12.9 20.9 0.00 6.60 0.05 99 864.5
20260503215027 9 359 11.3 19.3 0.00 6.60 0.05 99 864.3
20260503214031 10 325 9.7 27.4 0.00 6.60 0.05 99 864.4
20260503213035 10 285 17.7 29.0 0.00 6.60 0.05 99 864.4
20260503212036 10 289 14.5 27.4 0.00 6.60 0.05 99 864.3
20260503211035 10 305 12.9 27.4 0.00 6.60 0.05 99 864.2
20260503210037 10 306 12.9 24.1 0.00 6.60 0.05 99 864.1
20260503205041 10 323 14.5 25.7 0.00 6.60 0.05 99 864.1
20260503204021 10 291 20.9 33.8 0.00 6.60 0.05 99 863.9
20260503203014 10 302 14.5 25.7 0.00 6.60 0.05 99 863.9
20260503202044 10 359 14.5 29.0 0.00 6.60 0.05 99 863.6
20260503201019 10 359 17.7 30.6 0.00 6.60 0.05 99 863.7
20260503200025 10 359 17.7 29.0 0.00 6.60 0.05 99 863.6
20260503195032 10 297 16.1 29.0 0.00 6.60 0.05 99 863.6
20260503194033 11 293 14.5 33.8 0.00 6.60 0.05 99 863.5
20260503193015 11 332 17.7 30.6 0.10 6.60 0.05 99 863.5
20260503192022 11 283 16.1 29.0 0.10 6.60 0.05 99 863.3
20260503191029 11 301 14.5 25.7 0.10 6.60 0.05 99 863.0
20260503190027 11 315 16.1 32.2 0.10 6.60 0.05 99 863.2
20260503185027 11 359 12.9 29.0 0.10 6.60 0.05 99 863.2
20260503184028 11 320 12.9 25.7 0.10 6.60 0.05 99 863.1
20260503183032 12 272 14.5 29.0 0.00 6.50 0.03 99 863.2
20260503182026 12 359 16.1 30.6 0.00 6.50 0.03 99 862.7
20260503181024 12 298 16.1 29.0 0.00 6.50 0.03 99 862.6
20260503180031 13 290 16.1 29.0 0.00 6.50 0.03 99 862.4
20260503175015 13 359 20.9 37.0 0.00 6.50 0.03 99 862.2
20260503174042 13 301 24.1 37.0 0.00 6.50 0.03 99 862.1
20260503173019 13 312 25.7 38.6 0.00 6.50 0.03 99 862.2
20260503172019 13 302 24.1 37.0 0.00 6.50 0.03 99 862.5
20260503171024 13 300 19.3 32.2 0.00 6.50 0.03 99 862.8